Regional Weather Roundup
Issued by NWS

Home | Current Version | Previous Version | Graphics & Text | Print | Product List | Glossary On
Versions: 1 2 3 4 5 6 7 8 9 10 11 12 13 14 15 16 17 18 19 20 21 22 23 24 25 26 27 28 29 30 31 32 33 34 35 36 37 38 39 40 41 42 43 44 45 46 47 48 49 50
000
ASUS45 KPSR 191010
RWRAZ

ARIZONA HOURLY REGIONAL WEATHER ROUNDUP
NATIONAL WEATHER SERVICE PHOENIX AZ
300 AM MST THU JAN 19 2017

NOTE: FAIR INDICATES FEW OR NO CLOUDS BELOW 12,000 FEET WITH NO
SIGNIFICANT WEATHER AND/OR OBSTRUCTIONS TO VISIBILITY.

AZZ001>003-036-191100-
NORTHWEST ARIZONA

CITY           SKY/WX    TMP DP  RH WIND       PRES   REMARKS
BULLHEAD CITY  CLOUDY    52  43  71 SE8       29.97S
KINGMAN        CLOUDY    47  24  40 S9        29.95F
$$

AZZ004>008-015-016-018-191100-
NORTH CENTRAL ARIZONA

CITY           SKY/WX    TMP DP  RH WIND       PRES   REMARKS
GRAND CANYON   MOCLDY    30  30 100 SW9       29.98F WCI  22
WILLIAMS       MOCLDY    34  28  80 SW10G18   29.99F WCI  26
PRESCOTT       MOCLDY    37  30  75 S5        30.02S WCI  33
FLAGSTAFF      MOCLDY    31  28  89 W10G22    29.99F WCI  22
PAYSON         MOCLDY    36  32  87 CALM      30.07S
PAGE           MOCLDY    36  27  69 CALM      29.91F
$$

AZZ009>014-017-191100-
NORTHEAST ARIZONA

CITY           SKY/WX    TMP DP  RH WIND       PRES   REMARKS
WINSLOW        PTCLDY    36  32  85 S7        29.99F WCI  30
SAINT JOHNS    CLEAR     32  28  85 NE6       29.99S WCI  26
SHOW LOW       MOCLDY    32  28  86 SW13      30.04R WCI  22
$$

AZZ023-191100-
GREATER PHOENIX AREA

CITY           SKY/WX    TMP DP  RH WIND       PRES   REMARKS
PHOENIX        MOCLDY    49  42  77 E10       30.01S
BUCKEYE        CLOUDY    46  45  93 CALM      30.03R
LUKE AFB       MOCLDY    46  42  86 N3        30.01F
DEER VALLEY    PTCLDY    46  41  82 CALM      30.01F
SCOTTSDALE     PTCLDY    46  40  79 CALM      30.03S
MESA-GATEWAY   MOCLDY    45  41  87 E6        30.04S
$$

AZZ027-028-191100-
SOUTHWEST MARICOPA COUNTY AND PINAL COUNTY

CITY           SKY/WX    TMP DP  RH WIND       PRES   REMARKS
CASA GRANDE    MOCLDY    44  40  85 CALM      30.05R
$$

AZZ503-504-507>509-191100-
SOUTHEAST ARIZONA

CITY           SKY/WX    TMP DP  RH WIND       PRES   REMARKS
TUCSON         PTCLDY    44  38  79 SE7       30.07S
DAVIS-MONTHAN  CLOUDY    42  39  90 SE7       30.06S
NOGALES        MOCLDY    36  32  85 CALM      30.07S
SIERRA VISTA   CLEAR     37  31  82 SE5       30.07S WCI  33
DOUGLAS        CLEAR     36  33  89 E6        30.07R WCI  31
SAFFORD        CLEAR     37  35  92 SE6       30.02S WCI  32
$$

AZZ020-021-025-026-031-191100-
SOUTHWEST ARIZONA

CITY           SKY/WX    TMP DP  RH WIND       PRES   REMARKS
YUMA           LGT RAIN  53  44  71 SE6       30.02F
$$

CAZ031-033-041-043-047-048-061-191100-
SOUTHERN CALIFORNIA

CITY           SKY/WX    TMP DP  RH WIND       PRES   REMARKS
DOWNTOWN L.A.  RAIN      54  50  86 CALM      30.03R FOG
L.A. AIRPORT   LGT RAIN  54  51  90 SE5       30.03S FOG
SAN DIEGO      MOCLDY    57  48  72 SW8       30.03R
BURBANK        LGT RAIN  51  47  86 E7        30.02R FOG
ONTARIO        CLOUDY    51  46  83 SW3       30.02R
RIVERSIDE      CLOUDY    51  49  92 W5        30.02R
PALM SPRINGS   CLOUDY    54  41  61 E5        29.97F
EL CENTRO NAS  CLOUDY    53  48  83 SE6       29.99F
IMPERIAL       CLOUDY    55  51  86 CALM      29.97F
BLYTHE         CLOUDY    54  47  77 S13       29.99F
NEEDLES        LGT RAIN  54  43  66 SW3       29.97F
$$

NVZ020-UTZ003-191100-
SOUTHERN NEVADA-UTAH

CITY           SKY/WX    TMP DP  RH WIND       PRES   REMARKS
LAS VEGAS      CLOUDY    50  37  61 S5        29.87F
SALT LAKE CITY CLOUDY    26  22  84 N3        29.83S FOG
$$

NMZ009-TXZ055-191100-
NEW MEXICO-WEST TEXAS

CITY           SKY/WX    TMP DP  RH WIND       PRES   REMARKS
ALBUQUERQUE    CLEAR     35  29  78 CALM      29.94F
EL PASO        PTCLDY    45  35  68 SW13      29.96F
$$


........................KEY........................
SKY/WX - SKY CONDITION/WEATHER
TMP    - TEMPERATURE IN FAHRENHEIT
DP     - DEW POINT IN FAHRENHEIT
RH     - RELATIVE HUMIDITY IN PERCENT
WIND   - DIRECTION AND SPEED IN MILES PER HOUR (MPH)
VRB    - VARIABLE WIND DIRECTION
PRES   - MEAN SEA LEVEL PRESSURE IN INCHES OF MERCURY
         F - FALLING PRESSURE   R - RISING PRESSURE
         S - STEADY PRESSURE
VSB    - VISIBILITY IN MILES
HX     - HEAT INDEX IN FAHRENHEIT
WCI    - WIND CHILL INDEX IN FAHRENHEIT
TC     - TEMPERATURE IN CELSIUS WHICH IS ALSO KNOWN AS
         TEMPERATURE IN CENTIGRADE
AFB    - AIR FORCE BASE
         LUKE AFB IS LUKE AIR FORCE BASE
         DAVIS-MONTHAN IS DAVIS-MONTHAN AIR FORCE BASE
NAS    - NAVAL AIR STATION
         EL CENTRO NAS IS EL CENTRO NAVAL AIR STATION
N/A    - NOT AVAILABLE




USA.gov is the U.S. government's official web portal to all federal, state and local government web resources and services.